Location: Elizabeth Ann Machol Dragonfly Observatory
(32.8132°N, 108.2740°W)
Time: 12:01:43
(UTC-06:00)

Tiangong 2 - Visible Passes

Search period start: 24 March 2019 00:00
Search period end: 03 April 2019 00:00
Orbit: 380 x 390 km, 42.8° (Epoch: 24 March)

Date Brightness Start Highest point End Pass type
(mag) Time Alt. Az. Time Alt. Az. Time Alt. Az.
24 Mar 1.3 06:03:52 36° W 06:04:44 49° SW 06:07:47 10° SE visible
25 Mar 3.9 05:07:50 14° ESE 05:07:50 14° ESE 05:08:25 10° ESE visible
25 Mar 3.3 06:40:35 10° WSW 06:41:39 11° SW 06:42:44 10° SSW visible
26 Mar 3.5 05:44:16 14° S 05:44:16 14° S 05:44:54 10° SSE visible
27 Mar 3.7 21:11:41 10° SW 21:12:07 13° SSW 21:12:07 13° SSW visible
28 Mar 2.6 20:12:55 10° S 20:15:14 19° SE 20:16:23 16° ESE visible
29 Mar 0.9 20:49:07 10° WSW 20:52:14 88° SSE 20:52:46 57° ENE visible
30 Mar 3.2 21:26:48 10° W 21:28:57 25° NW 21:28:57 25° NW visible
31 Mar 2.0 20:26:52 10° WSW 20:29:53 46° NNW 20:32:41 12° NE visible
01 Apr 3.4 21:04:58 10° WNW 21:07:20 19° NNW 21:08:30 16° NNE visible
02 Apr 2.9 20:04:51 10° W 20:07:36 27° NNW 20:10:21 10° NE visible
02 Apr 4.2 21:43:22 10° NW 21:44:11 12° NNW 21:44:11 12° NNW visible
